TimeEET,TemperatureF,Dew PointF,Humidity,Sea Level PressureIn,VisibilityMPH,Wind Direction,Wind SpeedMPH,Gust SpeedMPH,PrecipitationIn,Events,Conditions,WindDirDegrees,DateUTC
12:20 AM,30.2,26.6,86,30.24,4.3,Calm,Calm,-,N/A,,Unknown,0,2013-11-18 22:20:00
12:50 AM,28.4,26.6,93,30.24,3.7,North,3.5,-,N/A,,Unknown,10,2013-11-18 22:50:00
1:03 AM,26.6,24.8,93,30.24,-9999.0,NE,2.3,-,N/A,,Mist,40,2013-11-18 23:03:00
1:20 AM,28.4,24.8,86,30.24,2.8,NNE,1.2,-,N/A,,Mist,30,2013-11-18 23:20:00
1:50 AM,26.6,24.8,93,30.24,-9999.0,Calm,Calm,-,N/A,,Mist,0,2013-11-18 23:50:00
2:00 AM,27,25,89,,3,Calm,Calm,,,,Mist,,2013-11-19 00:00:00
2:20 AM,26.6,24.8,93,30.24,-9999.0,Calm,Calm,-,N/A,,Mist,0,2013-11-19 00:20:00
2:50 AM,24.8,23.0,93,30.24,-9999.0,Calm,Calm,-,N/A,,Mist,0,2013-11-19 00:50:00
3:20 AM,26.6,24.8,93,30.24,-9999.0,Calm,Calm,-,N/A,,Mist,0,2013-11-19 01:20:00
3:50 AM,24.8,23.0,93,30.24,-9999.0,NNE,1.2,-,N/A,,Mist,20,2013-11-19 01:50:00
4:20 AM,26.6,24.8,93,30.24,2.5,NE,1.2,-,N/A,,Mist,40,2013-11-19 02:20:00
4:50 AM,24.8,23.0,93,30.24,2.2,Calm,Calm,-,N/A,,Mist,0,2013-11-19 02:50:00
5:00 AM,25,23,87,,2,Calm,Calm,,,,Mist,,2013-11-19 03:00:00
5:20 AM,24.8,23.0,93,30.24,2.8,Calm,Calm,-,N/A,,Mist,0,2013-11-19 03:20:00
5:50 AM,23.0,21.2,93,30.24,2.8,Calm,Calm,-,N/A,,Mist,0,2013-11-19 03:50:00
6:20 AM,23.0,21.2,93,30.24,2.5,NE,2.3,-,N/A,,Mist,40,2013-11-19 04:20:00
6:50 AM,24.8,23.0,93,30.24,-9999.0,Calm,Calm,-,N/A,,Mist,0,2013-11-19 04:50:00
7:20 AM,24.8,24.8,100,30.24,0.8,Calm,Calm,-,N/A,,Mist,0,2013-11-19 05:20:00
7:50 AM,32.0,30.2,93,30.27,1.0,Calm,Calm,-,N/A,,Mist,0,2013-11-19 05:50:00
8:00 AM,32,31,92,,1,Calm,Calm,,,,Mist,,2013-11-19 06:00:00
8:20 AM,33.8,30.2,87,30.27,-9999.0,Calm,Calm,-,N/A,,Mist,0,2013-11-19 06:20:00
8:50 AM,37.4,32.0,81,30.27,-9999.0,Calm,Calm,-,N/A,,Mist,0,2013-11-19 06:50:00
9:20 AM,39.2,32.0,75,30.27,1.6,Variable,1.2,-,N/A,,Mist,0,2013-11-19 07:20:00
9:50 AM,42.8,32.0,66,30.27,3.7,Calm,Calm,-,N/A,,Unknown,0,2013-11-19 07:50:00
10:20 AM,46.4,33.8,62,30.27,5.0,Calm,Calm,-,N/A,,Unknown,0,2013-11-19 08:20:00
10:50 AM,48.2,33.8,58,30.24,5.0,Variable,2.3,-,N/A,,Unknown,0,2013-11-19 08:50:00
11:00 AM,48,34,47,,5,North,1.2,,,,Haze,350,2013-11-19 09:00:00
11:20 AM,51.8,35.6,54,30.24,5.0,Variable,2.3,-,N/A,,Unknown,0,2013-11-19 09:20:00
11:50 AM,53.6,33.8,47,30.21,5.0,Variable,2.3,-,N/A,,Unknown,0,2013-11-19 09:50:00
12:20 PM,53.6,33.8,47,30.21,5.6,Variable,2.3,-,N/A,,Unknown,0,2013-11-19 10:20:00
12:50 PM,55.4,33.8,44,30.18,-9999.0,Variable,2.3,-,N/A,,Clear,0,2013-11-19 10:50:00
1:20 PM,57.2,33.8,41,30.18,-9999.0,Calm,Calm,-,N/A,,Clear,0,2013-11-19 11:20:00
1:50 PM,57.2,33.8,41,30.18,-9999.0,Variable,1.2,-,N/A,,Clear,0,2013-11-19 11:50:00
2:00 PM,58,34,28,,12,SW,1.2,,,,,220,2013-11-19 12:00:00
2:20 PM,57.2,33.8,41,30.18,-9999.0,Variable,2.3,-,N/A,,Clear,0,2013-11-19 12:20:00
2:50 PM,57.2,33.8,41,30.18,-9999.0,Variable,1.2,-,N/A,,Clear,0,2013-11-19 12:50:00
3:20 PM,57.2,33.8,41,30.18,-9999.0,Variable,2.3,-,N/A,,Clear,0,2013-11-19 13:20:00
3:50 PM,53.6,33.8,47,30.18,-9999.0,WSW,2.3,-,N/A,,Clear,250,2013-11-19 13:50:00
4:20 PM,48.2,32.0,54,30.18,4.3,WSW,4.6,-,N/A,,Unknown,250,2013-11-19 14:20:00
4:50 PM,44.6,33.8,66,30.18,4.3,Calm,Calm,-,N/A,,Unknown,0,2013-11-19 14:50:00
5:00 PM,45,33,52,,4,Calm,Calm,,,,Haze,,2013-11-19 15:00:00
5:20 PM,42.8,33.8,70,30.21,5.0,Calm,Calm,-,N/A,,Unknown,0,2013-11-19 15:20:00
5:50 PM,42.8,33.8,70,30.21,3.7,Calm,Calm,-,N/A,,Unknown,0,2013-11-19 15:50:00
6:20 PM,41.0,32.0,70,30.21,-9999.0,Calm,Calm,-,N/A,,Clear,0,2013-11-19 16:20:00
6:50 PM,37.4,30.2,75,30.21,3.7,Calm,Calm,-,N/A,,Unknown,0,2013-11-19 16:50:00
7:20 PM,37.4,32.0,81,30.21,3.7,NNE,1.2,-,N/A,,Unknown,30,2013-11-19 17:20:00
7:50 PM,37.4,30.2,75,30.24,5.0,Variable,2.3,-,N/A,,Unknown,0,2013-11-19 17:50:00
8:00 PM,36,31,76,,5,NE,2.3,,,,Mist,40,2013-11-19 18:00:00
8:20 PM,35.6,28.4,75,30.24,-9999.0,North,3.5,-,N/A,,Clear,10,2013-11-19 18:20:00
8:50 PM,33.8,28.4,81,30.24,-9999.0,NE,4.6,-,N/A,,Clear,50,2013-11-19 18:50:00
9:20 PM,32.0,28.4,87,30.24,-9999.0,Calm,Calm,-,N/A,,Clear,0,2013-11-19 19:20:00
9:50 PM,32.0,28.4,87,30.24,-9999.0,NE,2.3,-,N/A,,Clear,40,2013-11-19 19:50:00
10:20 PM,35.6,28.4,75,30.24,-9999.0,North,4.6,-,N/A,,Clear,360,2013-11-19 20:20:00
10:50 PM,30.2,24.8,80,30.24,-9999.0,NE,1.2,-,N/A,,Clear,50,2013-11-19 20:50:00
11:00 PM,29,26,81,,12,NE,1.2,,,,,50,2013-11-19 21:00:00
11:20 PM,28.4,26.6,93,30.24,-9999.0,ENE,1.2,-,N/A,,Clear,60,2013-11-19 21:20:00
11:50 PM,28.4,26.6,93,30.21,-9999.0,Calm,Calm,-,N/A,,Clear,0,2013-11-19 21:50:00